Погода в Кожухуве

Польша     51°44′30″N   15°35′26″E
темп.,
°C
ветер,
м/с
пор.,
м/с
влажн.,
%
обл.,
%
осадки,
мм/ч
давл.,
гПа
погр.,
м
1 марта, пн
пн101:00+3ссз238496 0.0 1036467
04:00+3ссз1285100 0.0 1036298
07:00+1з119290 0.0 103622
10:00+4з127887 0.0 1036455
13:00+8з116362 0.0 1037531
16:00+8сз11680 0.0 1035452
19:00+4зсз01850 0.0 103622
22:00+3ссз01890 0.0 103622
2 марта, вт
вт201:00+3юз11900 0.0 103622
04:00+2юз12900 0.0 103422
07:00+2з12900 0.0 103522
10:00+7з23700 0.0 1035264
13:00+12сз23530 0.0 1035530
16:00+12сз12550 0.0 1033447
19:00+7сз11710 0.0 103322
22:00+6всв01770 0.0 103322
3 марта, ср
ср301:00+5вюв12820 0.0 103322
04:00+4ю22860 0.0 103122
07:00+3ююз22880 0.0 103122
10:00+9юз35630 0.0 1030301
13:00+13зюз35500 0.0 1028693
16:00+12зюз36530 0.0 1025900
19:00+7юз36750 0.0 1024118
22:00+6зюз38840 0.0 1022163
4 марта, чт
чт401:00+6зюз4108616 0.0 1021240
04:00+5зюз499135 0.0 1018256
07:00+5зюз4109566 0.0 1017290
10:00+9з5107866 0.0 1016821
13:00+11з696479 0.0 10141098
16:00+9з6971100 0.1 10121009
19:00+7зсз3879100 0.3 1011681
22:00+5ссз3584100 0.1 1013578
5 марта, пт
пт501:00+3ссз4792100 0.6 1014522
04:000с5991100 0.5 1016685
07:00−1с488697 0.8 1019503
10:00+2с57561 0.0 10211454
13:00+4ссз464627 0.2 10221792
16:00+3ссз5849100 0.6 10231688
19:000сз366170 0.7 1025152
22:000з246666 0.0 1027113